Location: Bon Acre
(42.6442°N, 73.5758°W)
Time: 10:42:01
(UTC+00:00)

Cosmos 2221 - Pass Details

Date: 14 December 2025
Orbit: 569 x 590 km, 82.5° (Epoch: 21 January)

Event Time Altitude Azimuth Distance (km) Brightness Sun altitude
Rises 23:03:05 0° 164° (SSE) 2,792 5.9 -18.0°
Reaches altitude 10° 23:05:26 10° 154° (SSE) 1,894 4.9 -18.4°
Enters shadow 23:07:31 24° 132° (SE) 1,228 3.8 -18.7°
